Location: Enikep?du
(16.5133°N, 80.7066°E)
Time: 06:18:16
(UTC+00:00)

BREEZE-M DEB (TANK) - Pass Details

Date: 20 January 2020
Orbit: 293 x 16816 km, 49.6° (Epoch: 15 February)

Event Time Altitude Azimuth Distance (km) Brightness Sun altitude
Exits shadow 00:18:42 - 325° (NW) 5,353 6.9 -12.3°
Reaches altitude 10° 00:23:20 10° 334° (NNW) 3,265 5.8 -11.2°
Maximum altitude 00:28:35 25° 29° (NNE) 1,188 4.1 -10.0°
Drops below altitude 10° 00:31:00 10° 91° (E) 1,433 5.8 -9.5°
Sets 00:32:33 0° 108° (ESE) 2,061 7.8 -9.1°
